This demonstration page uses our WeatherBlox Daily Observations layout. Learn more.

Left ArrowRight Arrow

Hourly Observations for September 10, 2022

Temp ( °F °C ) Dew Point ( °F °C ) Humidity (%) Winds ( mph kmh ) Pressure ( in mb ) Visibility ( mi km ) Precip ( " mm )
12:53 am 00:53 Mostly Clear 75 23.9 69 20.6 82 82 SE 3 6 29.90 1013 10 16 0.00 0.00
1:53 am 01:53 Clear 74 23.3 70 21.1 87 87 ENE 6 9 29.88 1012 10 16 0.00 0.00
2:53 am 02:53 Clear 73 22.8 66 18.9 79 79 Calm 29.86 1011 10 16 0.00 0.00
3:53 am 03:53 Clear 75 23.9 66 18.9 74 74 Calm 29.86 1011 10 16 0.00 0.00
4:53 am 04:53 Clear 75 23.9 66 18.9 74 74 NE 6 9 29.87 1011 10 16 0.00 0.00
5:53 am 05:53 Clear 73 22.8 66 18.9 79 79 ENE 6 9 29.87 1012 10 16 0.00 0.00
6:53 am 06:53 Mostly Sunny 74 23.3 66 18.9 76 76 S 3 6 29.88 1012 10 16 0.00 0.00
7:53 am 07:53 Sunny 78 25.6 67 19.4 69 69 S 3 6 29.90 1013 10 16 0.00 0.00
8:53 am 08:53 Mostly Sunny 81 27.2 68 20 65 65 VRB 6 9 29.91 1013 10 16 0.00 0.00
9:53 am 09:53 Sunny 82 27.8 68 20 63 63 WSW 9 15 29.91 1013 10 16 0.00 0.00
10:53 am 10:53 Sunny 82 27.8 69 20.6 65 65 WSW 9 15 29.92 1013 10 16 0.00 0.00
11:53 am 11:53 Mostly Sunny 83 28.3 70 21.1 65 65 SW 10 17 29.91 1013 10 16 0.00 0.00
12:53 pm 12:53 Sunny 84 28.9 72 22.2 67 67 SW 13 20 29.89 1012 10 16 0.00 0.00
1:53 pm 13:53 Mostly Sunny 84 28.9 71 21.7 65 65 SSW 14 22 29.87 1012 10 16 0.00 0.00
2:53 pm 14:53 Sunny 84 28.9 69 20.6 61 61 SSW 14 22 29.86 1011 10 16 0.00 0.00
3:53 pm 15:53 Partly Cloudy 83 28.3 71 21.7 67 67 S 14 22 29.86 1011 10 16 0.00 0.00
4:53 pm 16:53 Sunny 83 28.3 71 21.7 67 67 SSW 14 22 29.87 1012 10 16 0.00 0.00
5:53 pm 17:53 Sunny 82 27.8 71 21.7 69 69 SSW 10 17 29.88 1012 10 16 0.00 0.00
6:53 pm 18:53 Clear 80 26.7 71 21.7 74 74 S 8 13 29.90 1013 10 16 0.00 0.00
7:53 pm 19:53 Clear 79 26.1 72 22.2 79 79 SSW 9 15 29.93 1013 10 16 0.00 0.00
8:53 pm 20:53 Clear 78 25.6 72 22.2 82 82 SSW 7 11 29.95 1014 10 16 0.00 0.00
9:53 pm 21:53 Mostly Cloudy 78 25.6 72 22.2 82 82 SSW 3 6 29.97 1015 10 16 0.00 0.00
10:53 pm 22:53 Cloudy 78 25.6 72 22.2 82 82 NNW 5 7 29.96 1015 10 16 0.00 0.00
11:53 pm 23:53 Mostly Clear 78 25.6 71 21.7 79 79 NNE 8 13 29.96 1015 10 16 0.00 0.00

Powered by AerisWeather